Back to catalog

METEOR 2-13

AliveWeatherPO
NORAD 16408·PAYLOAD·🇷🇺 Russia

Launched Dec 26, 1985 from Plesetsk Cosmodrome

Loading…

Next Passes (next 24 hours)

TLE

FreshSource: Space-Track

Epoch: Sep 14, 2026, 05:02 UTC

1 16408U 85119A   26257.21021479 -.00000007  00000-0 -18850-4 0  9996
2 16408  82.5401 183.1330 0014773 227.2256 132.7663 13.85594498 58320

Track METEOR 2-13 in real time with AllMySat

Download on the App Store